TimeCDT,TemperatureF,Dew PointF,Humidity,Sea Level PressureIn,VisibilityMPH,Wind Direction,Wind SpeedMPH,Gust SpeedMPH,PrecipitationIn,Events,Conditions,WindDirDegrees,DateUTC
12:53 AM,46.9,19.9,34,29.70,10.0,WNW,24.2,32.2,N/A,,Clear,300,2012-10-18 05:53:00
1:53 AM,46.9,19.0,33,29.69,10.0,WNW,29.9,40.3,N/A,,Clear,300,2012-10-18 06:53:00
2:53 AM,46.9,19.0,33,29.69,10.0,WNW,23.0,36.8,N/A,,Clear,290,2012-10-18 07:53:00
3:53 AM,46.9,18.0,32,29.68,10.0,WNW,33.4,44.9,N/A,,Partly Cloudy,300,2012-10-18 08:53:00
4:53 AM,46.9,18.0,32,29.66,10.0,WNW,28.8,46.0,N/A,,Mostly Cloudy,300,2012-10-18 09:53:00
5:53 AM,46.9,18.0,32,29.65,10.0,WNW,36.8,54.1,N/A,,Overcast,300,2012-10-18 10:53:00
6:53 AM,46.0,18.0,33,29.65,9.0,WNW,43.7,57.5,N/A,,Mostly Cloudy,300,2012-10-18 11:53:00
7:53 AM,46.0,19.9,35,29.65,9.0,NW,39.1,54.1,N/A,,Mostly Cloudy,310,2012-10-18 12:53:00
8:53 AM,46.9,21.9,37,29.65,10.0,NW,33.4,47.2,N/A,,Clear,310,2012-10-18 13:53:00
9:38 AM,48.2,24.8,40,29.64,2.5,NW,43.7,64.4,N/A,,Haze,320,2012-10-18 14:38:00
9:53 AM,48.0,24.1,39,29.66,4.0,NW,42.6,64.4,N/A,,Haze,310,2012-10-18 14:53:00
10:04 AM,48.2,24.8,40,29.64,3.0,NW,44.9,61.0,N/A,,Haze,320,2012-10-18 15:04:00
10:53 AM,48.0,25.0,41,29.66,3.0,NW,47.2,64.4,N/A,,Haze,310,2012-10-18 15:53:00
11:53 AM,48.9,25.0,39,29.67,5.0,NW,39.1,66.7,N/A,,Haze,320,2012-10-18 16:53:00
12:53 PM,48.9,27.0,43,29.68,6.0,NW,41.4,55.2,N/A,,Haze,320,2012-10-18 17:53:00
1:53 PM,50.0,28.0,43,29.67,6.0,NW,44.9,57.5,N/A,,Haze,310,2012-10-18 18:53:00
2:53 PM,50.0,28.9,44,29.70,7.0,NW,44.9,61.0,N/A,,Overcast,320,2012-10-18 19:53:00
3:53 PM,51.1,28.9,43,29.71,6.0,NW,42.6,61.0,N/A,,Haze,320,2012-10-18 20:53:00
4:53 PM,50.0,30.9,48,29.74,9.0,NW,38.0,51.8,N/A,,Overcast,320,2012-10-18 21:53:00
5:53 PM,50.0,30.9,48,29.76,10.0,NNW,28.8,52.9,N/A,,Overcast,330,2012-10-18 22:53:00
6:53 PM,50.0,30.9,48,29.77,10.0,NW,25.3,42.6,N/A,,Overcast,320,2012-10-18 23:53:00
7:53 PM,48.0,30.0,50,29.79,10.0,NW,25.3,38.0,N/A,,Partly Cloudy,320,2012-10-19 00:53:00
8:53 PM,48.0,30.9,52,29.80,10.0,NNW,36.8,48.3,N/A,,Overcast,330,2012-10-19 01:53:00
9:53 PM,46.9,30.9,54,29.81,10.0,NW,38.0,47.2,N/A,,Overcast,320,2012-10-19 02:53:00
10:53 PM,46.0,30.9,56,29.81,10.0,NW,33.4,47.2,N/A,,Mostly Cloudy,320,2012-10-19 03:53:00
11:53 PM,45.0,30.0,56,29.81,10.0,NW,33.4,44.9,N/A,,Partly Cloudy,320,2012-10-19 04:53:00